Flag for United Kingdom Weather past 2 weeks in Middlesbrough, England, United Kingdom

Now
39 °F

Passing clouds.


Feels Like: 29 °F
Forecast: N/A
Wind: 23 mph from Southwest

Location: Tees-Side

Current Time: Mar 3, 2015 at 8:31:29 PM

Latest Report: Mar 3, 2015 at 7:50 PM


Visibility: N/A

Pressure: 29.80 "Hg

Humidity: 75%

Dew point: 32 °F

Location of MiddlesbroughLocation

Historic Weather in Middlesbrough — Graph

°F

Middlesbrough temperature yesterday

Maximum temperature yesterday: 41 °F (at 12:20 PM)
Minimum temperature yesterday: 34 °F (at 6:50 AM)
Average temperature yesterday: 37 °F

Past Weeks' High & Low Weather Summary

 TemperatureHumidityPressure
High52 °F (Feb 18, 1:50 PM)93% (Feb 19, 9:20 AM)30.60 "Hg (Feb 19, 9:20 AM)
Low30 °F (Feb 27, 6:50 AM)40% (Feb 26, 3:20 PM)28.88 "Hg (Feb 23, 6:20 PM)
Average42 °F74%29.67 "Hg
* Reported Feb 16 7:20 PM — Mar 3 7:20 PM, Middlesbrough, Weather by CustomWeather, © 2015

Note: Actual official high and low records may vary slightly from our data, if they occured in-between our weather recording intervals... More about our weather records

Advertising

Middlesbrough weather history for previous 24 hours

 ConditionsComfort  
Time TempWeatherWind HumidityBarometerVisibility
7:20 PM
Tue, Mar 3
41 °FPassing clouds.23 mph66%29.80 "HgN/A
6:20 PM39 °FPassing clouds.20 mph70%29.80 "HgN/A
5:50 PM41 °FPassing clouds.18 mph61%29.80 "HgN/A
5:20 PM41 °FScattered clouds.20 mph61%29.80 "HgN/A
4:50 PM41 °FPassing clouds.20 mph61%29.80 "HgN/A
4:20 PM39 °FPassing clouds.17 mph70%29.80 "HgN/A
3:50 PM43 °FPassing clouds.25 mph53%29.80 "HgN/A
3:20 PM43 °FPassing clouds.23 mph57%29.80 "HgN/A
2:50 PM41 °FPassing clouds.21 mph66%29.80 "HgN/A
2:20 PM43 °FScattered clouds.23 mph53%29.77 "HgN/A
1:50 PM43 °FPassing clouds.21 mph49%29.77 "HgN/A
1:20 PM43 °FPassing clouds.22 mph53%29.77 "HgN/A
12:50 PM43 °FPassing clouds.24 mph53%29.77 "HgN/A
12:20 PM43 °FPassing clouds.21 mph57%29.77 "HgN/A
11:50 AM43 °FPassing clouds.17 mph53%29.77 "HgN/A
11:20 AM41 °FPassing clouds.17 mph57%29.77 "HgN/A
10:50 AM41 °FPassing clouds.18 mph61%29.74 "HgN/A
10:20 AM41 °FPassing clouds.17 mph61%29.74 "HgN/A
9:50 AM41 °FPassing clouds.23 mph61%29.74 "HgN/A
9:20 AM39 °FPassing clouds.9 mph70%29.74 "HgN/A
8:50 AM37 °FPassing clouds.12 mph81%29.74 "HgN/A
8:20 AM36 °FPassing clouds.16 mph81%29.74 "HgN/A
7:50 AM34 °FScattered showers. Scattered clouds.10 mph87%29.74 "HgN/A
7:20 AM36 °FScattered showers. Passing clouds.10 mph81%29.71 "Hg5 mi
6:50 AM34 °FPassing clouds.14 mph81%29.71 "HgN/A
6:20 AM36 °FPassing clouds.13 mph81%29.71 "HgN/A
5:50 AM34 °FClear.13 mph87%29.71 "Hg10 mi
9:50 PM
Mon, Mar 2
36 °FPassing clouds.18 mph81%29.71 "HgN/A
9:20 PM34 °FPassing clouds.21 mph93%29.71 "HgN/A
8:50 PM37 °FClear.17 mph75%29.71 "Hg10 mi
8:20 PM36 °FPassing clouds.20 mph81%29.68 "HgN/A
Weather by CustomWeather, © 2015

See weather overviewHow to use our weather pages